When you browse on this site, cookies collect data to enhance your experience and personalize the content and advertising you see.
Visit our Privacy Policy to learn more. By continuing to use the site, you agree to this use of cookies and data.
  • In Österreich
  • Länderverzeichnis
  • Für 7 Tage
  • Wassertemperatur
  • Satellitenkarten
  • Wetterkarte
  • News
  • Widgets
  • user-avatar
    Anmelden

    Stündliche Wetter Nara

    Heute, 26 Mai, Sonntag

    Zeit Temperatur Niederschläge Wind Luftdruck Luftfeuchtigkeit
    00:00 +21°C° 0 mm 2 m/S 734 mmHg 49%
    01:00 +21°C° 0 mm 2 m/S 733 mmHg 49%
    02:00 +22°C° 0 mm 1 m/S 733 mmHg 50%
    03:00 +21°C° 0 mm 1 m/S 733 mmHg 48%
    04:00 +21°C° 0 mm 1 m/S 734 mmHg 48%
    05:00 +21°C° 0 mm 1 m/S 734 mmHg 49%
    06:00 +22°C° 0 mm 1 m/S 734 mmHg 49%
    07:00 +24°C° 0 mm 1 m/S 734 mmHg 46%
    08:00 +26°C° 0 mm 1 m/S 734 mmHg 42%
    09:00 +28°C° 0 mm 1 m/S 734 mmHg 38%
    10:00 +29°C° 0 mm 1 m/S 734 mmHg 37%
    11:00 +30°C° 0 mm 2 m/S 734 mmHg 36%
    12:00 +31°C° 0 mm 2 m/S 734 mmHg 35%
    13:00 +31°C° 0 mm 2 m/S 734 mmHg 35%
    14:00 +31°C° 0 mm 2 m/S 734 mmHg 36%
    15:00 +31°C° 0 mm 2 m/S 733 mmHg 36%
    16:00 +30°C° 0 mm 2 m/S 733 mmHg 40%
    17:00 +29°C° 0 mm 2 m/S 733 mmHg 44%
    18:00 +28°C° 0 mm 2 m/S 733 mmHg 48%
    19:00 +27°C° 0 mm 2 m/S 733 mmHg 52%
    20:00 +25°C° 0 mm 2 m/S 733 mmHg 56%
    21:00 +24°C° 0 mm 2 m/S 733 mmHg 60%
    22:00 +23°C° 0 mm 2 m/S 733 mmHg 58%
    23:00 +23°C° 0 mm 2 m/S 732 mmHg 56%

    Morgen, 27 Mai, Montag

    Zeit Temperatur Niederschläge Wind Luftdruck Luftfeuchtigkeit
    00:00 +23°C° 0 mm 2 m/S 732 mmHg 53%
    01:00 +21°C° 0 mm 2 m/S 732 mmHg 51%
    02:00 +22°C° 0 mm 1 m/S 732 mmHg 48%
    03:00 +22°C° 0 mm 1 m/S 732 mmHg 45%
    04:00 +22°C° 0 mm 1 m/S 732 mmHg 44%
    05:00 +22°C° 0 mm 1 m/S 732 mmHg 43%
    06:00 +22°C° 0 mm 1 m/S 732 mmHg 42%
    07:00 +23°C° 0 mm 2 m/S 732 mmHg 39%
    08:00 +25°C° 0 mm 2 m/S 732 mmHg 35%
    09:00 +27°C° 0 mm 2 m/S 732 mmHg 32%
    10:00 +28°C° 0 mm 3 m/S 732 mmHg 31%
    11:00 +28°C° 0 mm 3 m/S 732 mmHg 30%
    12:00 +29°C° 0 mm 4 m/S 731 mmHg 29%
    13:00 +29°C° 0 mm 4 m/S 731 mmHg 30%
    14:00 +29°C° 0 mm 5 m/S 731 mmHg 30%
    15:00 +29°C° 0 mm 5 m/S 730 mmHg 31%
    16:00 +27°C° 0 mm 5 m/S 730 mmHg 39%
    17:00 +26°C° 0 mm 5 m/S 730 mmHg 46%
    18:00 +23°C° 0 mm 5 m/S 730 mmHg 54%
    19:00 +23°C° 0 mm 5 m/S 730 mmHg 57%
    20:00 +22°C° 0 mm 5 m/S 730 mmHg 60%
    21:00 +22°C° 0 mm 5 m/S 730 mmHg 62%
    22:00 +22°C° 0 mm 5 m/S 729 mmHg 63%
    23:00 +21°C° 0 mm 5 m/S 729 mmHg 64%

    übermorgen, 28 Mai, Dienstag

    Zeit Temperatur Niederschläge Wind Luftdruck Luftfeuchtigkeit
    00:00 +21°C° 0 mm 5 m/S 729 mmHg 65%
    01:00 +21°C° 0 mm 5 m/S 729 mmHg 66%
    02:00 +21°C° 0 mm 6 m/S 728 mmHg 67%
    03:00 +21°C° 0 mm 6 m/S 728 mmHg 68%
    04:00 +21°C° 0.2 mm 6 m/S 728 mmHg 69%
    05:00 +20°C° 0.2 mm 6 m/S 727 mmHg 70%
    06:00 +20°C° 0.2 mm 6 m/S 727 mmHg 72%
    07:00 +20°C° 1.6 mm 6 m/S 727 mmHg 73%
    08:00 +20°C° 1.6 mm 5 m/S 727 mmHg 75%
    09:00 +19°C° 1.6 mm 5 m/S 727 mmHg 77%
    10:00 +20°C° 0.2 mm 5 m/S 727 mmHg 78%
    11:00 +20°C° 0.2 mm 5 m/S 727 mmHg 79%
    12:00 +20°C° 0.2 mm 6 m/S 727 mmHg 81%
    13:00 +21°C° 0.2 mm 5 m/S 726 mmHg 81%
    14:00 +21°C° 0.2 mm 5 m/S 726 mmHg 82%
    15:00 +21°C° 0.2 mm 5 m/S 725 mmHg 82%
    16:00 +21°C° 1.2 mm 4 m/S 725 mmHg 84%
    17:00 +21°C° 1.2 mm 4 m/S 725 mmHg 86%
    18:00 +21°C° 1.2 mm 4 m/S 725 mmHg 88%
    19:00 +20°C° 2.3 mm 4 m/S 725 mmHg 87%
    20:00 +20°C° 2.3 mm 4 m/S 725 mmHg 86%
    21:00 +19°C° 2.3 mm 4 m/S 725 mmHg 85%
    22:00 +18°C° 1.8 mm 3 m/S 725 mmHg 84%
    23:00 +18°C° 1.8 mm 3 m/S 725 mmHg 83%

    29 Mai, Mittwoch

    Zeit Temperatur Niederschläge Wind Luftdruck Luftfeuchtigkeit
    00:00 +17°C° 1.8 mm 2 m/S 725 mmHg 81%
    01:00 +17°C° 0.5 mm 2 m/S 724 mmHg 79%
    02:00 +17°C° 0.5 mm 3 m/S 724 mmHg 77%
    03:00 +16°C° 0.5 mm 3 m/S 724 mmHg 75%
    04:00 +16°C° 0 mm 3 m/S 724 mmHg 73%
    05:00 +16°C° 0 mm 3 m/S 724 mmHg 72%
    06:00 +14°C° 0 mm 3 m/S 724 mmHg 70%
    07:00 +17°C° 0 mm 3 m/S 724 mmHg 60%
    08:00 +18°C° 0 mm 3 m/S 725 mmHg 49%
    09:00 +20°C° 0 mm 3 m/S 725 mmHg 38%
    10:00 +21°C° 0 mm 4 m/S 725 mmHg 35%
    11:00 +22°C° 0 mm 4 m/S 725 mmHg 31%
    12:00 +23°C° 0 mm 5 m/S 725 mmHg 28%
    13:00 +25°C° 0 mm 5 m/S 725 mmHg 26%
    14:00 +25°C° 0 mm 5 m/S 725 mmHg 24%
    15:00 +26°C° 0 mm 5 m/S 725 mmHg 23%
    16:00 +25°C° 0 mm 5 m/S 725 mmHg 25%
    17:00 +23°C° 0 mm 5 m/S 725 mmHg 28%
    18:00 +22°C° 0 mm 5 m/S 725 mmHg 31%
    19:00 +21°C° 0 mm 4 m/S 726 mmHg 33%
    20:00 +19°C° 0 mm 3 m/S 727 mmHg 36%
    21:00 +18°C° 0 mm 2 m/S 727 mmHg 38%
    22:00 +17°C° 0 mm 2 m/S 727 mmHg 40%
    23:00 +17°C° 0 mm 2 m/S 727 mmHg 41%

    30 Mai, Donnerstag

    Zeit Temperatur Niederschläge Wind Luftdruck Luftfeuchtigkeit
    00:00 +16°C° 0 mm 1 m/S 727 mmHg 43%
    01:00 +16°C° 0 mm 1 m/S 728 mmHg 44%
    02:00 +16°C° 0 mm 1 m/S 728 mmHg 45%
    03:00 +15°C° 0 mm 1 m/S 728 mmHg 46%
    04:00 +15°C° 0 mm 1 m/S 728 mmHg 47%
    05:00 +16°C° 0 mm 1 m/S 728 mmHg 47%
    06:00 +16°C° 0 mm 1 m/S 729 mmHg 48%
    07:00 +19°C° 0 mm 1 m/S 729 mmHg 41%
    08:00 +22°C° 0 mm 1 m/S 730 mmHg 33%
    09:00 +23°C° 0 mm 0 m/S 730 mmHg 26%
    10:00 +26°C° 0 mm 1 m/S 730 mmHg 23%
    11:00 +27°C° 0 mm 1 m/S 730 mmHg 20%
    12:00 +28°C° 0 mm 2 m/S 730 mmHg 17%
    13:00 +28°C° 0 mm 2 m/S 729 mmHg 18%
    14:00 +28°C° 0 mm 3 m/S 729 mmHg 19%
    15:00 +28°C° 0 mm 3 m/S 729 mmHg 20%
    16:00 +27°C° 0 mm 3 m/S 729 mmHg 27%
    17:00 +26°C° 0 mm 3 m/S 729 mmHg 34%
    18:00 +24°C° 0 mm 3 m/S 729 mmHg 41%
    19:00 +22°C° 0 mm 3 m/S 729 mmHg 45%
    20:00 +21°C° 0 mm 3 m/S 729 mmHg 50%
    21:00 +20°C° 0 mm 3 m/S 730 mmHg 54%
    22:00 +19°C° 0 mm 3 m/S 729 mmHg 54%
    23:00 +19°C° 0 mm 2 m/S 729 mmHg 54%

    31 Mai, Freitag

    Zeit Temperatur Niederschläge Wind Luftdruck Luftfeuchtigkeit
    00:00 +19°C° 0 mm 2 m/S 729 mmHg 55%
    01:00 +19°C° 0 mm 2 m/S 729 mmHg 56%
    02:00 +19°C° 0 mm 2 m/S 729 mmHg 58%
    03:00 +19°C° 0 mm 2 m/S 729 mmHg 59%
    04:00 +19°C° 0 mm 2 m/S 729 mmHg 62%
    05:00 +20°C° 0 mm 1 m/S 729 mmHg 65%
    06:00 +21°C° 0 mm 1 m/S 729 mmHg 67%
    07:00 +22°C° 0.1 mm 1 m/S 729 mmHg 63%
    08:00 +23°C° 0.1 mm 2 m/S 729 mmHg 58%
    09:00 +25°C° 0.1 mm 2 m/S 730 mmHg 53%
    10:00 +26°C° 0 mm 2 m/S 729 mmHg 46%
    11:00 +27°C° 0 mm 2 m/S 729 mmHg 39%
    12:00 +28°C° 0 mm 2 m/S 729 mmHg 31%
    13:00 +28°C° 0 mm 2 m/S 728 mmHg 31%
    14:00 +28°C° 0 mm 3 m/S 728 mmHg 30%
    15:00 +28°C° 0 mm 3 m/S 728 mmHg 29%
    16:00 +27°C° 0 mm 3 m/S 728 mmHg 34%
    17:00 +26°C° 0 mm 3 m/S 728 mmHg 38%
    18:00 +25°C° 0 mm 3 m/S 728 mmHg 43%
    19:00 +24°C° 0 mm 3 m/S 728 mmHg 49%
    20:00 +23°C° 0 mm 2 m/S 728 mmHg 55%
    21:00 +20°C° 0 mm 2 m/S 728 mmHg 61%
    22:00 +20°C° 0 mm 2 m/S 728 mmHg 63%
    23:00 +21°C° 0 mm 1 m/S 728 mmHg 65%
    Mehr zeigen